Simultaneous Nadir Overpasses (SNOs) Predictions

Prediction of SNOs between LANDSAT-8 and NOAA-19 Satellite Orbit:

Table of predicted SNOs for the next 14.0 days since TLE Epoch: 5/21/2016
Index Date (LANDSAT-8) Time (LANDSAT-8) Lat,Lon (LANDSAT-8) SZA (LANDSAT-8 ) Date (NOAA-19) Time (NOAA-19) Lat,Lon (NOAA-19) SZA (NOAA-19 ) Distance(km) Time Diff (sec)
1 05/22/2016 06:38:00 -74.79, -94.59 125.69 05/22/2016 06:36:48 -74.85, -95.46 125.66 26.02 72
2 05/22/2016 07:27:30 74.56, 72.48 54.06 05/22/2016 07:27:41 74.58, 72.59 54.09 3.55 11
3 05/24/2016 12:11:47 74.64, 1.58 53.73 05/24/2016 12:10:46 74.64, 1.70 53.73 3.51 61
4 05/24/2016 13:01:16 -74.57, 169.05 126.36 05/24/2016 13:01:48 -74.60, 169.05 126.32 3.85 32
5 05/26/2016 17:45:33 -74.64, 98.15 126.67 05/26/2016 17:44:52 -74.64, 98.22 126.66 2.37 41
6 05/26/2016 18:35:00 74.55, -94.41 53.24 05/26/2016 18:35:50 74.56, -94.29 53.26 3.63 50
7 05/28/2016 23:19:16 74.67,-165.20 53.01 05/28/2016 23:18:56 74.67,-165.33 53.01 3.81 20
8 05/29/2016 00:08:45 -74.60, 2.27 127.07 05/29/2016 00:09:56 -74.59, 2.15 127.08 3.88 71
9 05/31/2016 04:53:02 -74.66, -68.65 127.33 05/31/2016 04:53:00 -74.64, -68.70 127.35 2.98 2
10 06/02/2016 09:37:19 -74.72,-139.59 127.56 06/02/2016 09:36:06 -74.79,-139.85 127.50 10.96 73
11 06/02/2016 10:26:46 74.63, 27.83 52.34 06/02/2016 10:27:04 74.63, 27.85 52.35 0.61 18
